Race Results for
The Chile Challenge - MSC 3
Angel Fire, NM
(Event Information)
Cross Country on 05/24/2009

Note: Ranking points are NOT upgrade points. An explanation of ranking points can be found here.


Men - Cat 1/2/3 - Singlespeed Men

 Place Points NameCity, StateTime USAC #BibTeam
1Chad Melis   Lyons, CO1:42:03 161935  198 Dales Pale Ale Spot Brand
2Robin Guillaume   Fort Collins, CO1:46:56 271402  829 
3Troy WALCH   1:50:09  1010 Poison Spider Bicycles
4Jason Trujillo   Fort Collins, CO1:54:46 108083  545 Black Sheep / New Belgium
5Jonathan REED   1:57:23  1116 Ska
6Charlie Dunn   Colorado Springs, CO2:07:52 276472  942 ProCycling
7Aaron Johnson   Dixon, NM2:08:38 263186  801 
8Paul Trotman   Albuquerque, NM2:11:26 201143  807 
9Christopher Price   Colorado Springs, CO2:22:49 274586  855 Pikes Peak Velo
DNSZacarias JOHNSON   DNS  803 

Men - Cat 3 - Junior - 1-14

 Place Points NameCity, StateTime USAC #BibTeam
1460.02Collin Albert   Colorado Springs, CO1:01:54 276233  1095 Front Rangers
2474.62Cameron Williams   Big Bear City, CA1:06:31 245456  1090 Bear Valley Bikes
3Hudson MCNAMEE   1:07:46  810 Basalt Bik & Ski
4503.83Joe Christiansen   Lyons, CO1:10:10 295821  690 
5518.43Evan Williams   Big Bear City, CA1:12:56 255194  1091 Bear Valley Bikes
6Riley WANZEK   1:17:43  891 
7547.64Bailey Corry   Arroyo Hondo, NM1:32:16 280560  832 FITaos
8Rio GRAAB   1:48:05  1088 Team F.I.Taos

Men - Cat 3 - 30-39

 Place Points NameCity, StateTime USAC #BibTeam
1529.80Erik Glood   Rapid City, SD1:07:44 294782  840 
2Dustyn LADEWIG   1:12:19  1117 
3559.90Jeremy Templin   Thornton, CO1:12:19 288038  568 
4Rich MORGAN   1:14:24  1092 Dales Pale Ale Spot Brand
5Patrick FICKE   1:26:02  1105 

Men - Cat 3 - Master - 40-99

 Place Points NameCity, StateTime USAC #BibTeam
1496.63Dennis Comeau   Tesuque, NM1:07:25 175564  688 
2Dennis KELLER   1:10:35  632 
3527.76Ian Jardine   Colorado Springs, CO1:17:13 285734  640 
4Rob DRAGER   1:26:01  1104 
5558.88Doug Golenz   Littleton, CO1:30:33 293189  660 
6574.44Tim Gaffney   Angel Fire, NM1:37:19 268679  813 
7Tim PEART   1:38:59  1097 

Men - Cat 2 - Junior - 15-18

 Place Points NameCity, StateTime USAC #BibTeam
1385.04Keegan Swirbul   Carbondale, CO1:33:44 294387  734 
2400.71Merrick Westman   Buffalo Creek, CO1:37:30 264262  1074 Platte Canyon Cycling
3416.37Christian Shanley   Edwards, CO1:39:14 279447  873 Vail Mountain Bike Camps
4432.04Tristan White   Dillon, CO1:41:35 217504  557 
5447.71Jeffrey Gay   Steamboat Springs, CO1:42:56 295981  666 
6463.38T. Quade Jander   Arvada, CO1:43:47 288891  718 Team Colorado Singletrack
7479.05Ian Oliver   Albuquerque, NM1:46:59 275592  1124 Active Knowledge
8494.72Drake Uriguen   Fruita, CO1:57:52 279628  964 Singletrack Bike Shop
9510.39Caleb Maher   Arroyo Seco, NM2:01:34 278448  1132 Team F.I.Taos
10526.06Duke Jackson   Taos, NM2:02:41 295763  1133 Team F.I.Taos
11541.73Mark Dennis   Steamboat Springs, CO2:03:32 294276  783 

Men - Cat 2 - Senior - 19-29

 Place Points NameCity, StateTime USAC #BibTeam
1372.80Sam Chovan   Steamboat Springs, CO1:33:25 229072  1087 Moots / SSWSC
2402.09Dan Lucero   Albuquerque, NM1:34:31 183095  1119 Bikeworks ABQ
3431.38Robbie Jones   Golden, CO1:40:18 284880  924 
4460.67Alexander Leonard   Flagstaff, AZ1:40:34 253218  620 
5Cal TAYLOR   1:44:18  875 
6Adam MASONBRINK   1:46:32  935 
7Michael MOORE   2:12:57  606 
DNSSteve Saletnik   Denver, CODNS 195367  945 Yeti Cycles
DQJeremiah THOMPSON   DSQ  862 

Men - Cat 2 - Master - 30-39

 Place Points NameCity, StateTime USAC #BibTeam
1Aaron PHILLIPS   1:26:41  596 
2364.10Jonathan Davis   Blackhawk, CO1:33:35 295616  758 
3372.86Ryan Schultz   Grand Junction, CO1:38:42 240082  537 COMotion Sports / Yeti
4381.61Doug Dupuie   Denver, CO1:39:28 76455  892 COMotion Sports / Yeti
5390.37Jacob Gonzales   Taos, NM1:41:52 245268  658 Team F.I.Taos
6Kevin ORMEROD   1:43:52  730 
7Mike BOHLEN   1:43:57  695 
8416.63Christopher Taylor   Denver, CO1:44:11 263943  871 COMotion Sports / Yeti
9Brian MCCALL   1:45:03  778 
10434.14brian phillips   Denver, CO1:46:39 290569  595 
11442.90Douglas Bernard   Bellingham, WA1:50:36 3482  940 
12451.65Tim Gallegos   Albuquerque, NM1:52:44 276809  668 
13460.41Kyle Gustafson   Denver, CO1:53:08 278528  909 Optimize Endurance Services / BikeSource
14469.16RJ Ponchione   Santa Fe, NM1:53:21 295732  848 
15477.92Vincent Parshall   Mckinney, TX1:55:18 289622  880 
16Eric MCMARTIN   2:00:44  722 
17Travis EKENBERG   4:15:09  714 
DNSJosh MARCEAU   DNS  850 Green Mountain Sports
DNSJeffrey Taylor   Albuquerque, NMDNS 292957  874 

Men - Cat 2 - Master - 40-49

 Place Points NameCity, StateTime USAC #BibTeam
1421.60Cary Dunn   Pine, CO1:32:39 10203  513 COMotion Sports / Yeti
2432.54Paul Raemer   Centennial, CO1:38:45 292266  591 
3443.47Carlos McGarity   El Prado, NM1:40:32 295532  928 Team F.I.Taos
4454.40Mike Haley   Evergreen, CO1:43:50 295535  1024 Betterride.net
5465.33Steve Loyd   Colorado Springs, CO1:45:09 178450  618 Livermore Cyclery
6Patrick TRUJILLO   1:45:37  1136 Bike and Sport
7Brad WOODARD   1:46:17  554 Team Body Sync / Specialized
8498.13Kendall Clukey   Houlton, ME1:46:55 193559  1101 
9509.07Michael Bender   Herndon, VA2:02:31 263359  853 
10Patrick JUSTUS   2:02:39  1129 
11530.93Mark Edwards   Santa Fe, NM2:05:53 10518  713 
12541.87Robb Nixon   El Paso, TX2:05:54 242516  782 
13552.80Dave Johnson   Albuquerque, NM2:07:33 269195  639 
14563.73Larry Collins   Denver, CO2:08:45 245087  854 BeeCee Racing
15Pete RINCON   2:20:16  1114 Team Ups
DNSByron Morton   Albuquerque, NMDNS 264467  604 
DNSJeffrey Kennedy   Breckenridge, CODNS 207015  827 Filter Kleen

Men - Cat 2 - Master - 50-99

 Place Points NameCity, StateTime USAC #BibTeam
1David Strouse   Broomfield, CO2:02:12 195636  753 COMotion Sports / Yeti
2Don PADILLA   2:15:57  602 
DNSMark Johnson   Dixon, NMDNS 263184  800 

Men - Cat 1 - Junior - 15-18

 Place Points NameCity, StateTime USAC #BibTeam
1403.21Brae Patten   Gunnison, CO1:40:18 230367  1113 Tokyo Joes Junior
2413.60Michael Vigers   Boulder, CO1:47:36 246461  852 Dales Pale Ale Spot Brand
3423.98Casey Williams   Big Bear City, CA1:54:08 227522  1089 Bear Valley Bikes
4434.37Lewis Gaffney   Angel Fire, NM1:56:44 247368  1081 Team F.I.Taos
5444.75Coulter Westman   Bailey, CO2:11:27 252761  1073 Optimize Endurance Services / BikeSource
DNSSkyler Trujillo   Fort Collins, CODNS 284764  546 Niner Bikes

Men - Cat 1 - Senior - 19-29

 Place Points NameCity, StateTime USAC #BibTeam
1334.19Jon Vivolo   Grand Junction, CO1:38:00 269159  1069 Ellsworth / Road 34
2348.43Chris Baddick   Boulder1:38:19 284559  872 
3362.68Lars Ellefson   Park Rapids, MN1:42:16 280179  784 
4376.93Andrew Shepherd   Boulder, CO1:42:26 200758  890 Subaru / Gary Fisher
5391.17Colin Jenkins   Aurora, CO1:46:45 258894  519 COMotion Sports / Yeti
6405.42Sem Gallegos   El Paso, TX1:48:41 233198  819 Crazy Cat Cyclery
7419.67Zachary Keller   Mesa, AZ1:51:10 257387  898 
8433.91Ian Gale   Steamboat Springs, CO1:53:30 227645  808 Steamboat Ski and Bike Kare
9448.16Tim Curry   La Crosse, WI1:56:54 248006  889 CB Builders / Brick Oven
10462.40Daniel Zube   Fort Collins, CO1:57:21 187909  757 
11476.65Chris Butler   Carbondale, CO1:57:52 264691  506 COMotion Sports / Yeti
12490.90Nicholas Martinez   Albuquerque, NM1:57:59 210302  932 
13505.14Robert Conner   Colorado Springs, CO1:58:06 275966  686 
14519.39Austin Anliker   Flagstaff, AZ2:02:25 282379  1135 
15533.64Simon Gonzalez   Saint Louis, MO2:05:58 221980  745 
16547.88G Adam Stepanovic   Santa Cruz, CA2:10:30 41895  790 
DNSJason Holbrook   Boulder, CODNS 211236  517 
DNFJonathan Mullen   Denver, CODNF 221639  603 
DNFWill Curry   Crested Butte, CODNF 247987  681 
DNFJames Sullivan   Boulder, CODNF 221582  1083 

Men - Cat 1 - Master - 30-39

 Place Points NameCity, StateTime USAC #BibTeam
1332.72Brad Bingham   Steamboat Springs, CO1:37:06 121632  826 Moots Cycles
2346.78Michael Cubison   Boulder, CO1:42:35 229210  710 
3360.83Casey Hill   Talent, OR1:43:41 234118  1080 Mafia Racing
4374.89Adam Plummer   Avon, CO1:44:10 28311  1131 Pedal Power
5388.94Brett Lindstrom   Boulder, CO1:45:33 41752  1038 Mafia Racing
6403.00Ezekiel Hersh   Frisco, CO1:46:55 260750  814 Ellsworth / No Tubes / Hammer
7417.05Brandon Eifrid   Lafayette, CO1:47:10 106252  675 Horizon Organic Cycling
8431.11Christopher Tamucci   Steamboatsprings, CO1:48:16 278459  1110 Honey Stinger / Trek
9445.16Jake Lueckel   Lakewood, CO1:49:06 76599  943 Bicycle Village / Squirt Lube
10459.22Andrew Riemenschneider   Salida, CO1:49:07 104372  816 South Central Racing
11473.27Elliot McKinney   Amarillo, TX1:49:10 169299  1098 Solar Eclipse
12487.33Joshua Cullen   New Castle, CO1:52:07 149664  1111 Honey Stinger / Trek
13501.39Daniel Swinton   Albuquerque, NM1:53:54 86276  1123 Bikeworks
14515.44Reg Rhodes   Granby, CO1:55:28 282161  903 Trek Bicycle Store / Boulder MTB
15529.50Nick Thelen   Colorado Springs, CO1:59:52 200176  543 Feedback Sports
16543.55Doug Kast   Taos, NM2:00:59 168950  1138 Team F.I.Taos
17557.61Adam Mickiewicz   Greeley, CO2:02:33 237623  842 
18571.66Eric Lawrence   Colorado Springs, CO2:13:37 20552  843 

Men - Cat 1 - Master - 40-49

 Place Points NameCity, StateTime USAC #BibTeam
1364.48Joseph Prinzivalli   Albuquerque, NM1:39:12 28733  1099 Cafe Giuseppe
2378.58Glenn Walton   Nathrop, CO1:43:36 136296  835 South Central Racing
3392.67Michael Scanlon   Snowmass Vlg, CO1:49:11 115426  1106 Basalt Bike
4406.77Steven Yore   Golden Valley, MN1:51:36 39241  551 
5420.86Ed Tokarski   Littleton, CO1:52:45 295331  923 
6434.96Douglas Hudson   Golden, CO1:53:03 77069  518 Feedback Sports
7449.05Peter Tempest   Gallup, NM1:54:21 102793  569 Adventure Gallup Racing
8463.15Greg Gorrell   Conifer, CO1:54:40 221265  516 Feedback Sports
9477.24Douglas Meegan   Littleton, CO1:55:39 105731  527 Team Colorado Singletrack
10491.34Rodrigo Gil Moreno de Mora   Loveland, CO1:57:22 240113  515 Diamond Peak Racing
11505.43Brian Maslach   Woodland Park, CO1:57:34 22802  1100 Spike Shooter
12519.53Robert Romero   Santa Fe, NM2:01:33 173389  1118 
13533.62Barry Wiebe   Littleton, CO2:01:47 171924  548 Team Colorado Singletrack
14547.72Jim Bergman   Thornton, CO2:01:58 199456  939 Feedback Sports
15561.81Robert Letson   Broomfield, CO2:08:41 178769  619 
16575.91Keevin Sharp   Amarillo, TX2:26:19 139617  580 Sharps Motorsports
17590.00Timothy Barnes   Boulder, CO2:42:26 96071  766 Mafia Racing
DNSWade Wilderman   Fraser, CODNS 38221  738 Team Totally Wired

Men - Cat 1 - Master - 50-99

 Place Points NameCity, StateTime USAC #BibTeam
1467.15Mark Soderberg   Conifer, CO1:52:18 98141  540 Green Mountain Sports
2508.10Jim Gibson   Flagstaff, AZ1:59:51 13180  715 Absolute Bikes
3549.05Ed Ford   Golden, CO2:15:28 209727  916 Great Adventure Sports / Empire Burger
4590.00Tony Gonzales   Los Alamos, NM2:18:32 229004  768 Nuptse Racing
DNSThomas Hayles   Aspen, CODNS 15546  717 ZG 7908

Men - Pro - Elite

 Place Points NameCity, StateTime USAC #BibTeam
1286.93Colin Cares   Boulder, CO1:59:12 216528  100 Kenda / Tomac / Hayes
2295.28Andy Schultz   Missoula, MT2:00:02 172534  77 
3303.63Jay Henry   Avon, CO2:00:38 15853  125 Tokyo Joes
4311.98Damian Calvert   Albuquerque, NM2:01:13 81251  108 
5320.33Macky Franklin   Taos2:03:00 215111  58 Transparent Racing
6328.68Mike West   Boulder, CO2:06:33 37786  35 Maverick
7337.04Kalan Beisel   Colorado Springs, CO2:07:39 244363  117 ProCycling/CTS
8345.39Len Zanni   Steamboat Springs, CO2:07:40 39400  136 Honey Stinger / Trek
9353.74Michael McCalla   Santa Fe, NM2:08:00 23198  118 ScottUSA
10362.09Jens Nielsen   Durango, CO2:10:08 144898  48 Sports Systems MTC
11370.44Mark Legg Compton   Colorado Springs, CO2:10:18 20788  111 Spike Shooter
12378.79Nate Bird   Steamboat Springs, CO2:11:17 264280  64 Honey Stinger / Trek
13387.14Bryan Mickiewicz   Littleton, CO2:11:46 211312  146 Rocky Mountain Racing
14395.49David Olson   Sturgis, SD2:12:26 275854  200 Quarq / Two Wheeler Dealer
15403.85Jan Koles   Winter Park, CO2:12:31 222615  123 Mafia Racing
16412.20Adam Parke   Steamboat Springs, CO2:12:45 213492  24 Orange Peel
17420.55Nick Gould   Hollis Maine2:12:48 139267  106 Directory Plus
18428.90Robert Sousa   Thornton, CO2:13:21 250172  30 COMotion Sports / Yeti
19437.25Dylan Stucki   Durango, CO2:14:45 192016  138 Mafia Racing
20445.60Michael Raney   Santa Fe, NM2:15:32 175669  196 Voodoo
21453.95Chad Wells   Petoskey, MI2:16:01 194504  137 3D Racing
22462.30Zack Vestal   Golden, CO2:16:06 36636  209 Honey Stinger / Trek
23470.65Aaron Anderson   Fort Collins, CO2:16:17 102212  204 Team Rio Grande
24479.01Joe Schneider   Durango, CO2:16:42 217452  133 
25487.36Jason Young   Boulder, CO2:17:45 43908  39 Feedback Sports
26495.71Drew Edsall   Denver, CO2:18:06 225238  107 
27504.06Dax Kastrin   Albuquerque, NM2:20:37 195035  52 Sport Systems MTC
28512.41Art Nelsen   Boulder, CO2:20:38 211465  22 Tokyo Joes
29520.76Jordan Williford   Boulder, CO2:21:29 246497  38 Bach Builders
30529.11Nick Truitt   Breckenridge, CO2:23:17 198767  33 PCL Construction/Yeti Cycles/Wheatridge
31537.46Matt Wiebe   Boulder, CO2:24:27 242922  36 Team Colorado Singletrack
32545.82Alex Morgan   Amarillo2:24:51 25033  103 
33554.17Kat Statman   Lexington, VA2:25:32 239294  199 Transparent Racing
34562.52Griff Duncan   Boulder, CO2:25:42 182982  19 Phoenix Multi-sport
35570.87Matthew Beaton   Colorado Springs, CO2:26:31 216119  128 Tokyo Joes
36579.22Parmenides Orpinel   Los Lunas, NM2:29:06 264696  47 Active Knowledge
37587.57Matthew Connors   Scottsdale, AZ2:33:06 196490  84 Fisher 29er Crew
DNSNicolas Enjalbert   Fort Collins, CODNS 274054  95 Team Velox
DNFBenjamin Portilla   Oakland, CADNF 208016  25 Honey Stinger / Trek
DNFWill Ross   Anchorage, AKDNF 222489  86 Kaladi Brothers
DNFMichael Andres   Durango, CODNF 189954  105 Trek/VW
DNFBenjamin Kraushaar   Durango, CODNF 198737  131 Team Directory Plus
DNFMiles Venzara   Durango, CODNF 138725  206 Directory Plus / Trek

Women - Cat 1/2/3 - Singlespeed Women

 Place Points NameCity, StateTime USAC #BibTeam
1Sarah TESCHER   2:08:36  1130 Durango Devo
2Jessica Reed   Durango, CO2:08:49 263539  1115 Durango Devo
3Chelsea McGowan   Lakewood, CO2:36:28 217555  944 Spot / Dales Pale Ale

Women - Cat 3 - Junior - 1-14

 Place Points NameCity, StateTime USAC #BibTeam
1Hailey Swirbul   Carbondale, CO1:37:23 294388  570 
2Haley Dallas   El Prado, NM1:49:03 295756  913 

Women - Cat 3 - Junior - 15-18

 Place Points NameCity, StateTime USAC #BibTeam
1Carolina McGarity   El Prado, NM2:35:27 295533  929 Team F.I.Taos

Women - Cat 3 - Master - 40-99

 Place Points NameCity, StateTime USAC #BibTeam
1Katherine MILLER   1:55:26  1041 

Women - Cat 2 - Junior - 15-18

 Place Points NameCity, StateTime USAC #BibTeam
1275.70Linnea Dixson   Steamboat Springs, CO1:57:35 295757  897 
2379.75Jamie Gay   Steamboatsprings, CO2:10:45 295979  667 
3483.80Melissa Gonzales   Los Alamos, NM2:19:27 230630  769 

Women - Cat 2 - Senior - 19-29

 Place Points NameCity, StateTime USAC #BibTeam
1322.09Katie Sodergren   Breckenridge, CO1:59:35 284503  828 
2360.62Jessica Conner   Colorado Springs, CO2:01:41 295109  687 
3Kim GODFREY   2:01:52  876 
4437.67Evelyn Calhoun   Denver, CO2:03:02 288128  764 COMotion Sports / Yeti
5476.20Sarah Dixson   Laramie, WY2:06:21 295474  902 
6Kendra MARTINEZ   2:30:32  922 

Women - Cat 2 - Master - 30-39

 Place Points NameCity, StateTime USAC #BibTeam
1Krista BOHLEN   1:59:17  696 
2550.00Marjorie Conrad   Denver, CO2:01:08 288848  888 COMotion Sports / Yeti
3Melissa MCMARTIN   2:04:46  723 
4Shannon COX BAKER   2:05:37  847 
5Ahmi BRYANT   2:09:21  977 Staats Bike Shop
6590.00Terrina Tafoya   Durango, CO2:12:40 271097  934 Fort Lewis College

Women - Cat 2 - Master - 40-99

 Place Points NameCity, StateTime USAC #BibTeam
1432.86Donna Dallas   Saintaugustine, FL1:58:33 280494  908 Team F.I.Taos
2510.72Cindy Morse   Snowmass Village, CO2:02:25 267070  1036 
3588.57Susan Prieto   Boulder, CO2:08:36 219062  893 Blue Sky Velo

Women - Cat 1 - Junior - 15-18

 Place Points NameCity, StateTime USAC #BibTeam
1373.33AliciaRose Pastore   Durango Co1:41:52 219217  599 Durango Devo
2425.67Deidre York   Boulder, CO1:54:21 178289  796 Velobum.com/Turner
3478.02Jill Behlen   Boulder, CO2:10:18 210228  754 Tokyo Joes Junior
4530.37Kaila Hart   Durango, CO2:13:42 264272  1077 Durango Devo
DNSMeghan Kane   Dillon, CODNS 223279  520 Tough Girl / SCOTT
DNFKatherine Ingalls   Steamboat Springs, CODNF 229450  641 

Women - Cat 1 - Senior - 19-29

 Place Points NameCity, StateTime USAC #BibTeam
1370.99Kay Sherwood   Colorado Springs, CO2:00:21 258965  1128 Tokyo Joes
2391.60Mary Hoyle   Colorado Springs, CO2:12:10 280396  812 
3412.21Sarah Rawley   Dillon, CO2:13:44 234957  533 YetiBeti
4432.82Lianna Miller   Colorado Springs, CO2:25:28 218389  911 Mafia Racing
5453.43Lauren Ziedonis   Aspen, CO2:34:26 248319  549 Basalt Bike and Ski/Columbine Landscape
DNSSage Wilderman   Fraser, CODNS 199903  73 Team Totally Wired

Women - Cat 1 - Master - 30-39

 Place Points NameCity, StateTime USAC #BibTeam
1408.35Megan Taylor   Denver, CO2:11:19 247273  870 COMotion Sports / Yeti
2426.96Tracy Thelen   Colorado Springs, CO2:13:08 245202  566 Feedback Sports
3445.57Lynn Bush   Arvada, CO2:15:37 217462  941 Tough Girl / SCOTT
4464.18Sarka Ruzickova   Winter Park, CO2:19:38 261623  536 YetiBeti
5482.79Julia Kintsch   Golden, CO2:19:39 275803  948 
6501.40Elizabeth Turnage   Manitou Springs, CO2:19:46 280862  1120 Sunna Racing
7520.01Amy Thomas   Lakewood, CO2:25:50 122982  946 YetiBeti
8538.62Shannon Mathis   Nashville, TN2:26:49 186727  613 
9557.23Vanessa Moore   Grand Junction, CO2:29:08 212390  821 
DNFMelanie Long   Boulder, CODNF 214563  1107 Mafia Racing

Women - Cat 1 - Master - 40-99

 Place Points NameCity, StateTime USAC #BibTeam
1418.25Melissa Trainer   Boulder, CO2:02:38 111548  811 Rocky Mounts / Izze
2440.68Holly Wade   Dillon, CO2:11:17 228978  915 COMotion Sports / Yeti
3463.12Kristin Edwards   Santa Fe, NM2:13:23 275503  712 
4485.55Pam Seidler   Carbondale, CO2:24:11 277022  538 Basalt Bike and Ski
5507.98Deborah Herbold   Ignacio, CO2:24:13 32575  1125 Sram
6530.42Kathryn Judson   Arvada, CO2:37:08 47161  719 Golden Bear/christian Cycling
7552.85Shelly Raemer   Centennial, CO2:38:56 294649  590 
8575.28Karie Mueller   Amarillo, TX2:59:37 214338  744 Team Kordestani Cycling

Women - Pro - Elite

 Place Points NameCity, StateTime USAC #BibTeam
1258.24Kelli Emmett   Plymouth Mi1:47:23 156146  113 Giant Bicycles
2270.47Judy Freeman   Littleton Co1:47:52 182719  205 Tough Girl / Scott
3282.71Gretchen Reeves   Avon, CO1:49:22 29423  69 Tokyo Joes
4294.94Jennifer Gersbach   Durango, CO1:50:12 191239  195 Dales Pale Ale Spot Brand
5307.18Katherine Compton   Colorado Springs, CO1:53:39 55820  112 Spike Shooter
6319.41Dellys Starr   Lakewood, CO1:53:54 208446  194 Dales Pale Ale/Spot Brand
7331.65Becca Blay   Boulder, CO1:54:28 174258  96 Bear Naked / Cannondale
8343.89Nina Baum   Albuquerque, NM1:55:50 180986  203 Cannondale Factory Racing
9356.12Kristin Johnson   Albuquerque, NM1:56:30 164978  207 
10368.36Caitlyn Tuel   Golden, CO1:56:31 168652  99 Trek VW
11380.59Melody Serra   Highlands Ranch, CO1:58:56 249421  28 Optimize Endurance Services / BikeSource
12392.83Teal Stetson-Lee   Reno, NV1:59:05 252205  44 
13405.06Lindsey Bishop   Boulder, CO1:59:16 198013  120 Mafia Racing
14417.30Heather Holmes   Atlanta, GA2:02:23 222022  67 Kenda / Tomac / Hayes
15429.53Jennifer Tilley   Carbondale, CO2:02:24 166006  90 Spot / Dales Pale Ale
16441.77Molly Throdahl   Allendale, NJ2:09:37 260403  32 Sports Garage
17454.00Sonya Bugbee   Lakewood, CO2:25:32 228971  18 YetiBeti
DNFErin Huck   Boulder, CODNF 194901  109 Tokyo Joes

Report missing or incorrect license numbers

Volkswagen
USACDFSpySierra NevadaShimanoBonk Breaker
UCI USA Cycling is the official governing body for all disciplines of competitive cycling in the United States. The 501c3, membership-based organization aims both to achieve sustained success in international cycling competition and to grow competitive cycling in America while delivering an exceptional customer experience.
View Children's Online Privacy Protection Policy
US Olympic Committee